GW0720 Weather Reports


Display with metric or nautical units.
time (UTC)temp
F
wind
direction
speed
MPH
gust
MPH
rain 1hr
in
rain 24hr
in
rain mn
in
humidity
%
barometer
mb
20260508123057 48 0 0.0 0.0 0.00 0.10 0.00 98 1017.8
20260508121600 47 0 0.0 0.0 0.00 0.10 0.00 98 1017.7
20260508120056 45 0 0.0 0.0 0.00 0.10 0.00 98 1017.2
20260508113105 43 0 0.0 0.0 0.00 0.10 0.00 97 1016.8
20260508111600 42 0 0.0 0.0 0.00 0.10 0.00 96 1016.7
20260508110058 42 0 0.0 0.0 0.00 0.10 0.00 96 1016.3
20260508104558 42 0 0.0 0.0 0.00 0.11 0.00 96 1016.1
20260508103052 42 0 0.0 0.0 0.00 0.11 0.00 95 1015.8
20260508101553 42 0 0.0 0.0 0.00 0.11 0.00 95 1015.8
20260508100058 43 0 0.0 0.0 0.00 0.11 0.00 96 1015.6
20260508094610 43 0 0.0 0.0 0.00 0.19 0.00 95 1015.4
20260508093058 43 0 0.0 0.0 0.00 0.19 0.00 95 1015.3
20260508091614 44 0 0.0 0.0 0.00 0.19 0.00 95 1015.0
20260508090106 45 0 0.0 0.0 0.00 0.19 0.00 95 1015.1
20260508084551 46 0 0.0 1.0 0.00 0.20 0.00 96 1014.9
20260508083053 46 0 0.0 2.0 0.00 0.20 0.00 96 1014.8
20260508081555 46 0 0.0 0.0 0.00 0.20 0.00 97 1014.5
20260508080052 46 0 0.0 2.0 0.00 0.20 0.00 97 1014.5
20260508074551 44 0 0.0 1.0 0.00 0.20 0.00 96 1014.4
20260508073055 44 0 0.0 0.0 0.00 0.20 0.00 95 1014.3
20260508071555 44 0 0.0 0.0 0.00 0.20 0.00 95 1014.2
20260508070100 44 0 0.0 0.0 0.00 0.20 0.00 96 1014.0
20260508064554 44 0 0.0 0.0 0.00 0.20 0.00 95 1014.0
20260508063133 44 0 0.0 0.0 0.00 0.20 0.00 95 1013.9
20260508061554 45 0 0.0 0.0 0.00 0.20 0.00 95 1013.8
20260508060056 45 0 0.0 0.0 0.00 0.20 0.00 95 1013.5
20260508054551 45 0 0.0 0.0 0.00 0.20 0.00 95 1013.4
20260508053059 45 0 0.0 0.0 0.00 0.20 0.00 95 1013.4
20260508051617 45 0 0.0 0.0 0.00 0.20 0.00 95 1013.5
20260508050057 46 0 0.0 0.0 0.00 0.20 0.00 95 1013.4
20260508044556 46 0 0.0 0.0 0.00 0.20 0.00 95 1013.3
20260508043052 46 0 0.0 0.0 0.00 0.20 0.00 95 1013.1
20260508041555 47 0 0.0 0.0 0.00 0.20 0.00 95 1013.3
20260508040052 47 0 0.0 0.0 0.00 0.20 0.00 95 1013.2
20260508034553 48 0 0.0 0.0 0.00 0.20 0.20 95 1013.1
20260508033055 48 0 0.0 0.0 0.00 0.20 0.20 95 1013.1
20260508031552 48 0 0.0 0.0 0.00 0.20 0.20 95 1013.1
20260508030100 48 0 0.0 0.0 0.00 0.20 0.20 95 1012.9
20260508024552 47 0 0.0 0.0 0.00 0.20 0.20 95 1012.8
20260508023053 47 0 0.0 0.0 0.00 0.20 0.20 94 1012.8
20260508021554 47 0 0.0 0.0 0.00 0.20 0.20 94 1012.7
20260508020105 47 0 0.0 0.0 0.00 0.20 0.20 93 1012.6
20260508014553 48 0 0.0 0.0 0.00 0.20 0.20 93 1012.3
20260508013052 48 0 0.0 0.0 0.00 0.20 0.20 93 1012.5
20260508011553 49 0 0.0 0.0 0.00 0.20 0.20 93 1012.5
20260508010105 50 0 0.0 0.0 0.00 0.20 0.20 93 1012.5
20260508004552 50 0 0.0 0.0 0.00 0.20 0.20 93 1012.3
20260508003101 50 0 0.0 0.0 0.00 0.20 0.20 93 1012.2
20260508001602 51 0 0.0 0.0 0.00 0.20 0.20 92 1012.0
20260508000314 51 0 0.0 0.0 0.00 0.20 0.20 92 1011.6
20260507234555 52 0 0.0 0.0 0.00 0.20 0.20 92 1011.4
20260507233054 52 0 0.0 1.0 0.00 0.20 0.20 92 1011.2
20260507231552 52 0 0.0 0.0 0.00 0.20 0.20 92 1011.2
20260507230109 52 0 0.0 2.0 0.00 0.20 0.20 91 1011.0
20260507224553 53 0 0.0 2.0 0.00 0.20 0.20 91 1011.0
20260507223155 53 0 0.0 2.0 0.00 0.20 0.20 92 1011.0
20260507221555 53 0 0.0 3.0 0.00 0.20 0.20 91 1011.1
20260507220053 53 0 0.0 0.0 0.01 0.20 0.20 92 1010.8
20260507214600 53 0 0.0 1.0 0.01 0.20 0.20 91 1011.0
20260507213122 53 57 0.0 2.0 0.04 0.20 0.20 90 1010.9
20260507211556 53 0 0.0 2.0 0.06 0.20 0.20 92 1010.7
20260507204555 53 0 0.0 1.0 0.08 0.19 0.19 89 1011.3
20260507203054 54 0 0.0 1.0 0.06 0.16 0.16 91 1011.1
20260507201609 54 0 0.0 0.0 0.04 0.14 0.14 90 1011.3
20260507200105 54 0 0.0 2.0 0.04 0.14 0.14 88 1011.5
20260507194552 55 0 0.0 1.0 0.01 0.11 0.11 88 1011.3
20260507193055 55 0 0.0 3.0 0.00 0.10 0.10 85 1011.7
20260507191555 56 0 0.0 2.0 0.00 0.10 0.10 81 1011.7
20260507190057 57 0 0.0 2.0 0.00 0.10 0.10 79 1011.6
20260507184551 56 0 0.0 2.0 0.00 0.11 0.10 76 1011.6
20260507183101 56 245 0.0 2.0 0.00 0.11 0.10 78 1011.6
20260507181607 56 0 0.0 4.0 0.00 0.11 0.10 75 1011.9
20260507180057 56 55 0.0 3.0 0.00 0.11 0.10 75 1011.6
20260507174602 56 58 1.0 5.0 0.00 0.11 0.10 79 1012.0
20260507173101 56 223 1.0 5.0 0.00 0.11 0.10 77 1012.4
20260507171605 56 257 0.0 3.0 0.00 0.11 0.10 80 1012.2
20260507170059 56 0 0.0 3.0 0.00 0.11 0.10 78 1012.5
20260507164603 56 0 0.0 4.0 0.00 0.11 0.10 79 1012.7
20260507163057 56 0 1.0 7.0 0.00 0.11 0.10 81 1012.7
20260507161608 56 0 0.0 7.0 0.00 0.11 0.10 81 1012.6
20260507160058 56 205 1.0 7.0 0.00 0.11 0.10 80 1012.9
20260507154555 56 129 1.0 4.0 0.00 0.11 0.10 80 1012.8
20260507153110 56 0 0.0 8.0 0.00 0.11 0.10 82 1012.9
20260507151559 56 0 0.0 3.0 0.00 0.11 0.10 84 1012.8
20260507150054 56 0 0.0 9.0 0.00 0.11 0.10 80 1013.1
20260507144554 57 0 0.0 3.0 0.00 0.19 0.10 80 1012.7
20260507143102 57 0 1.0 6.0 0.00 0.19 0.10 78 1012.7
20260507141558 57 250 1.0 4.0 0.00 0.19 0.10 81 1012.9
20260507140057 57 0 1.0 4.0 0.00 0.19 0.10 79 1013.1
20260507134606 57 336 1.0 7.0 0.00 0.19 0.10 83 1013.0
20260507133058 57 0 1.0 7.0 0.00 0.19 0.10 85 1012.6
20260507131559 57 309 1.0 9.0 0.00 0.19 0.10 84 1012.6
20260507130107 57 0 0.0 8.0 0.00 0.19 0.10 86 1012.5
20260507124615 57 0 0.0 4.0 0.00 0.19 0.10 91 1012.5